Tracking 29932 objects as of 3-Dec-2024
HD Live streaming from Space Station
objects crossing your sky now

STARLINK-11281

Track STARLINK-11281 now!
10-day predictions
STARLINK-11281 is classified as:


NORAD ID: 60996
Int'l Code: 2024-158G
Perigee: 366.0 km
Apogee: 367.9 km
Inclination: 53.2 °
Period: 91.7 minutes
Semi major axis: 6737 km
RCS: Unknown
Launch date: September 5, 2024
Source: United States (US)
Launch site: AIR FORCE EASTERN TEST RANGE (AFETR)
Your satellite tracking list
Your tracking list is empty




NASA's NSSDC Master Catalog

Two Line Element Set (TLE):
1 60996U 24158G   24338.16044846 -.00010050  00000-0 -78297-4 0  9998
2 60996  53.1577  36.6264 0001403  85.9937 274.1241 15.69676881 15112
Source of the keplerian elements: AFSPC